Miles City, MT

8:13 PM MST on January 17, 2018 (GMT -0700)
Wiley

Weather History for KMLS - February, 2013

Change the Weather History Date:

Thursday, February 28, 2013

  Actual Average Record
Temperature  
Mean Temperature 34 °F 28 °F  
Max Temperature 47 °F 40 °F 69 °F (1992)
Min Temperature 20 °F 17 °F -27 °F (1962)
Degree Days  
Heating Degree Days 31 37  
Month to date heating degree days 914 1138  
Since 1 July heating degree days 5194 5734  
Cooling Degree Days 0 0  
Month to date cooling degree days 0 0  
Year to date cooling degree days 0 0  
Moisture  
Dew Point 21 °F    
Average Humidity 60    
Maximum Humidity 88    
Minimum Humidity 31    
Precipitation  
Precipitation 0.00 in 0.01 in 0.20 in (1953)
Month to date precipitation 0.01 0.23  
Year to date precipitation 0.19 0.55  
Snow  
Snow 0.00 in - - ()
Month to date snowfall 0.0  
Snow Depth 0.00 in    
Sea Level Pressure  
Sea Level Pressure 30.25 in    
Wind  
Wind Speed 8 mph (WNW)    
Max Wind Speed 22 mph    
Max Gust Speed 28 mph    
Visibility 10 miles    
Events      
T = Trace of Precipitation, MM = Missing Value Source: NWS Daily Summary

Daily Weather History Graph

Daily Weather History Graph

Search for Another Location

Airport or City:

Trip Planner

Search our weather history database for the weather conditions in past years. The results will help you decide how hot, cold, wet, or windy it might be!

Date:

Astronomy

Feb. 28, 2013 Rise Set
Actual Time 6:44 AM MST 5:48 PM MST
Civil Twilight 6:13 AM MST 6:18 PM MST
Nautical Twilight 5:39 AM MST 6:53 PM MST
Astronomical Twilight 5:04 AM MST 7:28 PM MST
Moon 9:34 PM MST (2/28) 7:41 AM MST (2/28)
Length of Visible Light 12h 05m
Length of Day
11h 04m
Waning Gibbous, 90% of the Moon is Illuminated
Feb 28
Waning Gibbous
Mar 4
Last Quarter
Mar 11
New
Mar 19
First Quarter
Mar 27
Full

Hourly Weather History & Observations

Time (MST) Temp. Windchill Dew Point Humidity Pressure Visibility Wind Dir Wind Speed Gust Speed Precip Events Conditions
12:53 AM 25.0 °F 19.3 °F 21.0 °F 85% 30.25 in 10.0 mi NE 4.6 mph - N/A   Scattered Clouds
1:53 AM 25.0 °F 18.1 °F 21.0 °F 85% 30.25 in 10.0 mi NNE 5.8 mph - N/A   Overcast
2:53 AM 26.1 °F 21.9 °F 21.0 °F 81% 30.23 in 10.0 mi East 3.5 mph - N/A   Overcast
3:53 AM 24.1 °F - 19.0 °F 81% 30.24 in 10.0 mi Calm Calm - N/A   Clear
4:53 AM 21.9 °F - 18.0 °F 85% 30.25 in 10.0 mi Calm Calm - N/A   Clear
5:53 AM 21.9 °F - 18.0 °F 85% 30.26 in 10.0 mi Calm Calm - N/A   Clear
6:53 AM 21.0 °F 13.4 °F 18.0 °F 88% 30.27 in 10.0 mi SSW 5.8 mph - N/A   Clear
7:53 AM 26.1 °F 21.9 °F 21.9 °F 84% 30.26 in 10.0 mi South 3.5 mph - N/A   Clear
8:53 AM 30.9 °F 24.3 °F 24.1 °F 76% 30.25 in 10.0 mi SW 6.9 mph - N/A   Clear
9:53 AM 37.0 °F 31.0 °F 23.0 °F 57% 30.25 in 10.0 mi West 8.1 mph - N/A   Clear
10:53 AM 42.1 °F 35.7 °F 21.0 °F 43% 30.23 in 10.0 mi West 11.5 mph - N/A   Clear
11:53 AM 45.0 °F 38.9 °F 19.0 °F 36% 30.23 in 10.0 mi West 12.7 mph - N/A   Clear
12:53 PM 46.0 °F 38.5 °F 17.1 °F 31% 30.20 in 10.0 mi WNW 19.6 mph 25.3 mph N/A   Partly Cloudy
1:53 PM 43.0 °F 34.8 °F 19.9 °F 40% 30.21 in 10.0 mi WNW 18.4 mph - N/A   Overcast
2:53 PM 45.0 °F 39.3 °F 19.9 °F 37% 30.21 in 10.0 mi WNW 11.5 mph - N/A   Overcast
3:53 PM 44.1 °F 37.7 °F 21.0 °F 40% 30.22 in 10.0 mi NNW 12.7 mph - N/A   Overcast
4:53 PM 41.0 °F 35.8 °F 21.9 °F 47% 30.24 in 10.0 mi NNW 8.1 mph - N/A   Mostly Cloudy
5:53 PM 37.9 °F 28.5 °F 25.0 °F 60% 30.27 in 10.0 mi North 17.3 mph 24.2 mph N/A   Overcast
6:53 PM 33.1 °F - 28.0 °F 82% 30.28 in 10.0 mi Calm Calm - N/A   Mostly Cloudy
7:53 PM 30.0 °F 22.4 °F 25.0 °F 82% 30.29 in 10.0 mi WSW 8.1 mph - N/A   Clear
8:53 PM 28.9 °F 21.1 °F 23.0 °F 78% 30.29 in 10.0 mi NW 8.1 mph - N/A   Clear
9:53 PM 27.0 °F 19.5 °F 21.0 °F 78% 30.32 in 10.0 mi WNW 6.9 mph - N/A   Clear
10:53 PM 26.1 °F 17.6 °F 19.9 °F 78% 30.32 in 10.0 mi WNW 8.1 mph - N/A   Clear
11:53 PM 27.0 °F 18.7 °F 19.9 °F 75% 30.30 in 10.0 mi WNW 8.1 mph - N/A   Mostly Cloudy